Location: B�rgermoos
(47.6500°N, 9.0667°E)
Time: 08:27:03
(UTC+00:00)

NOSS 3-2 (A) - Pass Details

Date: 18 September 2020
Orbit: 795 x 1413 km, 63.4° (Epoch: 02 October)

Event Time Altitude Azimuth Distance (km) Brightness Sun altitude
Rises 18:09:32 0° 318° (NW) 3,857 7.6 -7.6°
Reaches altitude 10° 18:12:10 10° 324° (NW) 2,987 6.8 -8.0°
Maximum altitude 18:19:10 49° 38° (NE) 1,558 4.4 -9.2°
Enters shadow 18:26:32 12° 111° (ESE) 3,202 5.5 -10.4°
